Regional Weather Roundup
Issued by NWS New Orleans/Baton Rouge, LA

Home | Current Version | Previous Version | Text Only | Print | Product List | Glossary On
Versions: 1 2 3 4 5 6 7 8 9 10 11 12 13 14 15 16 17 18 19 20 21 22 23 24 25 26 27
000
ASUS44 KLIX 301212
RWRLIX
NEW ORLEANS REGIONAL WEATHER ROUNDUP
NATIONAL WEATHER SERVICE NEW ORLEANS LA
700 AM CDT MON MAY 30 2016

NOTE: "FAIR" INDICATES FEW OR NO CLOUDS BELOW 12,000 FEET WITH NO
      SIGNIFICANT WEATHER AND/OR OBSTRUCTIONS TO VISIBILITY.
      SKY/WX - SKY CONDITION AND SIGNIFICANT WEATHER.
      TMP - AIR TEMPERATURE.     DP    - DEWPOINT TEMPERATURE.
      RH  - RELATIVE HUMIDITY.   PRES  - PRESSURE.
      HI  - HEAT INDEX.          WCI   - WIND CHILL INDEX.

*  THESE STATIONS ARE NOT NWS OR FAA STATIONS AND ARE NOT UNDER
   NWS QUALITY CONTROL.

LAZ038-040-048-061>063-065>067-069-301300-
SOUTHEAST LOUISIANA

CITY           SKY/WX    TMP DP  RH WIND       PRES   REMARKS
N.O. AUDUBON     N/A     75  73  92 MISG        N/A
6HR MIN TEMP:  73; 6HR MAX TEMP:  77;

N.O. INTL ARPT PTSUNNY   75  72  90 W3        30.03R
6HR MIN TEMP:  73; 6HR MAX TEMP:  76;

N.O. LAKEFRONT SUNNY     79  72  79 NW8       30.03R
6HR MIN TEMP:  77; 6HR MAX TEMP:  80;

N.O. DOWNTOWN*   N/A     77  72  84 NW3       30.04R
6HR MIN TEMP:  76; 6HR MAX TEMP:  80;

RESERVE*         N/A     74  72  93 CALM      30.04R FOG
6HR MIN TEMP:  72; 6HR MAX TEMP:  76;

SLIDELL        SUNNY     72  70  93 CALM      30.02R
6HR MIN TEMP:  69; 6HR MAX TEMP:  73;

BATON ROUGE    SUNNY     72  69  90 CALM      30.03R
6HR MIN TEMP:  70; 6HR MAX TEMP:  77;

BOOTHVILLE     SUNNY     75  72  90 CALM      30.02R
6HR MIN TEMP:  74; 6HR MAX TEMP:  77;

BELLE CHASSE   MOSUNNY   72  71  97 CALM      30.03R
6HR MIN TEMP:  69; 6HR MAX TEMP:  73;

BOGALUSA*        N/A     70  66  88 CALM      30.05R
6HR MIN TEMP:  68; 6HR MAX TEMP:  74;

GALLIANO*      SUNNY     65  64  96 CALM      30.02R
6HR MIN TEMP:  64; 6HR MAX TEMP:  68;

NEW ROADS*       N/A     71  71  98 CALM      30.03R
6HR MIN TEMP:  69; 6HR MAX TEMP:  74;

GONZALES*        N/A     71  71 100 CALM      30.03R FOG
6HR MIN TEMP:  69; 6HR MAX TEMP:  74;

HAMMOND*       SUNNY     70  68  94 CALM      30.04R FOG
HOUMA*         SUNNY     72  72 100 CALM      30.03R
PORT FOURCHON* SUNNY     79  72  78 SW3       30.02R

$$

MSZ070-080>082-301300-
SOUTHERN MISSISSIPPI

CITY           SKY/WX    TMP DP  RH WIND       PRES   REMARKS
MCCOMB         SUNNY     69  66  90 CALM      30.04R
6HR MIN TEMP:  68; 6HR MAX TEMP:  75;

GULFPORT       MOSUNNY   74  70  87 NW7       30.01R
6HR MIN TEMP:  70; 6HR MAX TEMP:  75;

BILOXI         SUNNY     76  73  92 VRB2      30.01R
6HR MIN TEMP:  74; 6HR MAX TEMP:  78;

PASCAGOULA     SUNNY     72  70  93 CALM      30.02R
6HR MIN TEMP:  66; 6HR MAX TEMP:  72;

STENNIS ARPT*  SUNNY     72  66  83 NW6       30.02

$$

COASTAL OBSERVATIONS
LAKE AND NEARSHORE STATIONS

STATION/POSITION TIME  TEMP    WIND        PRES    WAVE
                       AIR SEA DIR/SP/G            HT/PER
                 (UTC) (F)     (DEG/KT/KT) (MB)    (FT/S)
PASCAGOULA       1100   75     300/  3/  4 1015.4
WAVELAND YACHT   1100   74 81  330/  6/  7 1015.7
GRAND ISLE       1100   79 82  270/  2/  3 1015.9
SOUTHWEST PASS   1100          200/  2/  3   N/A
NEW CANAL        1100   76 81  240/  2/  3 1015.2
SHELL BEACH      1100   77 82  280/  7/  7 1016.0

OFFSHORE STATIONS

STATION/POSITION TIME  TEMP    WIND        PRES    WAVE
                       AIR SEA DIR/SP/G            HT/PER
                 (UTC) (F)     (DEG/KT/KT) (MB)    (FT/S)
64 S DAUPHIN ISL 1100   78 80  280/  4/  6 1015.9

$$





USA.gov is the U.S. government's official web portal to all federal, state and local government web resources and services.